TimeMDT,TemperatureF,Dew PointF,Humidity,Sea Level PressureIn,VisibilityMPH,Wind Direction,Wind SpeedMPH,Gust SpeedMPH,PrecipitationIn,Events,Conditions,WindDirDegrees,DateUTC
12:15 AM,60.8,55.4,82,30.24,7.0,ESE,4.6,-,N/A,,Overcast,120,2013-09-13 06:15:00
12:35 AM,60.8,55.4,82,30.23,6.0,SE,4.6,-,N/A,,Overcast,130,2013-09-13 06:35:00
12:55 AM,60.8,55.4,82,30.22,3.0,Calm,Calm,-,N/A,,Overcast,0,2013-09-13 06:55:00
1:15 AM,60.8,55.4,82,30.22,2.0,Calm,Calm,-,N/A,,Overcast,0,2013-09-13 07:15:00
1:35 AM,60.8,57.2,88,30.20,5.0,ESE,5.8,-,N/A,,Overcast,110,2013-09-13 07:35:00
1:55 AM,60.8,57.2,88,30.19,4.0,ESE,4.6,-,0.01,,Overcast,110,2013-09-13 07:55:00
2:15 AM,60.8,57.2,88,30.19,2.0,East,11.5,-,N/A,,Overcast,100,2013-09-13 08:15:00
2:35 AM,60.8,57.2,88,30.18,7.0,ESE,9.2,-,0.01,,Overcast,110,2013-09-13 08:35:00
2:55 AM,60.8,57.2,88,30.17,10.0,ESE,8.1,-,0.01,,Overcast,120,2013-09-13 08:55:00
3:15 AM,60.8,57.2,88,30.16,10.0,ESE,9.2,-,N/A,,Overcast,110,2013-09-13 09:15:00
3:35 AM,60.8,57.2,88,30.15,5.0,ESE,8.1,-,N/A,,Overcast,110,2013-09-13 09:35:00
3:55 AM,60.8,57.2,88,30.15,4.0,ESE,9.2,-,0.01,,Overcast,110,2013-09-13 09:55:00
4:15 AM,60.8,57.2,88,30.15,5.0,East,8.1,-,0.01,,Overcast,100,2013-09-13 10:15:00
4:35 AM,60.8,57.2,88,30.14,8.0,ESE,10.4,-,0.01,,Overcast,120,2013-09-13 10:35:00
4:55 AM,60.8,57.2,88,30.13,9.0,ESE,9.2,-,0.03,,Overcast,120,2013-09-13 10:55:00
5:15 AM,60.8,57.2,88,30.12,7.0,East,10.4,16.1,0.04,,Overcast,100,2013-09-13 11:15:00
5:35 AM,60.8,57.2,88,30.12,10.0,SE,13.8,17.3,0.07,,Overcast,130,2013-09-13 11:35:00
5:55 AM,60.8,55.4,82,30.12,10.0,ESE,13.8,-,0.07,,Overcast,120,2013-09-13 11:55:00
6:15 AM,60.8,55.4,82,30.12,10.0,SE,15.0,21.9,N/A,,Overcast,130,2013-09-13 12:15:00
6:35 AM,60.8,55.4,82,30.11,10.0,SE,15.0,23.0,N/A,,Overcast,130,2013-09-13 12:35:00
6:55 AM,60.8,57.2,88,30.11,9.0,ESE,13.8,-,N/A,,Overcast,120,2013-09-13 12:55:00
7:15 AM,60.8,55.4,82,30.11,10.0,ESE,13.8,-,N/A,,Overcast,120,2013-09-13 13:15:00
7:35 AM,60.8,57.2,88,30.11,10.0,SE,12.7,-,N/A,,Overcast,130,2013-09-13 13:35:00
7:55 AM,60.8,57.2,88,30.10,10.0,ESE,11.5,19.6,N/A,,Overcast,120,2013-09-13 13:55:00
8:15 AM,60.8,57.2,88,30.10,8.0,ESE,13.8,18.4,0.01,,Overcast,120,2013-09-13 14:15:00
8:35 AM,60.8,57.2,88,30.09,10.0,ESE,15.0,-,0.03,,Overcast,120,2013-09-13 14:35:00
8:55 AM,60.8,57.2,88,30.09,7.0,ESE,12.7,-,0.06,,Overcast,120,2013-09-13 14:55:00
9:15 AM,60.8,57.2,88,30.09,9.0,ESE,15.0,-,0.01,,Overcast,120,2013-09-13 15:15:00
9:35 AM,62.6,59.0,88,30.08,9.0,SE,11.5,-,0.02,,Overcast,130,2013-09-13 15:35:00
9:55 AM,62.6,60.8,94,30.07,8.0,ESE,10.4,-,0.02,,Mostly Cloudy,120,2013-09-13 15:55:00
10:15 AM,62.6,60.8,94,30.06,8.0,ESE,6.9,-,N/A,,Overcast,120,2013-09-13 16:15:00
10:35 AM,62.6,59.0,88,30.06,8.0,SW,3.5,-,N/A,,Overcast,220,2013-09-13 16:35:00
10:55 AM,64.4,60.8,88,30.05,10.0,South,8.1,-,N/A,,Overcast,180,2013-09-13 16:55:00
11:15 AM,64.4,60.8,88,30.05,10.0,SSE,12.7,18.4,N/A,,Overcast,160,2013-09-13 17:15:00
11:35 AM,64.4,59.0,83,30.05,10.0,South,11.5,21.9,N/A,,Overcast,190,2013-09-13 17:35:00
11:55 AM,66.2,57.2,73,30.05,10.0,SSW,12.7,18.4,N/A,,Overcast,210,2013-09-13 17:55:00
12:15 PM,66.2,59.0,78,30.04,10.0,SW,11.5,-,N/A,,Overcast,220,2013-09-13 18:15:00
12:35 PM,68.0,57.2,68,30.03,10.0,SW,5.8,-,N/A,,Scattered Clouds,220,2013-09-13 18:35:00
12:55 PM,69.8,57.2,64,30.02,10.0,SSW,5.8,-,N/A,,Clear,210,2013-09-13 18:55:00
1:15 PM,71.6,57.2,60,30.02,10.0,SSE,8.1,-,N/A,,Clear,150,2013-09-13 19:15:00
1:35 PM,71.6,59.0,64,30.01,10.0,South,10.4,-,N/A,,Scattered Clouds,170,2013-09-13 19:35:00
1:55 PM,71.6,59.0,64,30.00,10.0,South,3.5,-,N/A,,Mostly Cloudy,170,2013-09-13 19:55:00
2:15 PM,71.6,60.8,69,29.99,10.0,East,3.5,-,N/A,,Partly Cloudy,90,2013-09-13 20:15:00
2:35 PM,73.4,60.8,65,29.98,10.0,SE,6.9,-,N/A,,Partly Cloudy,140,2013-09-13 20:35:00
2:55 PM,73.4,60.8,65,29.97,1.0,East,3.5,-,N/A,,Mostly Cloudy,100,2013-09-13 20:55:00
3:15 PM,75.2,60.8,61,29.97,8.0,Calm,Calm,-,N/A,,Clear,0,2013-09-13 21:15:00
3:35 PM,73.4,59.0,61,29.96,10.0,ESE,4.6,-,N/A,,Clear,120,2013-09-13 21:35:00
3:55 PM,75.2,60.8,61,29.95,10.0,SE,5.8,-,N/A,,Clear,140,2013-09-13 21:55:00
4:15 PM,75.2,59.0,57,29.95,10.0,Calm,Calm,-,N/A,,Clear,0,2013-09-13 22:15:00
4:35 PM,77.0,60.8,57,29.94,10.0,SSE,8.1,-,N/A,,Scattered Clouds,150,2013-09-13 22:35:00
4:55 PM,75.2,60.8,61,29.94,10.0,ESE,8.1,-,N/A,,Mostly Cloudy,120,2013-09-13 22:55:00
5:15 PM,73.4,59.0,61,29.94,10.0,SE,10.4,-,N/A,,Mostly Cloudy,140,2013-09-13 23:15:00
5:35 PM,73.4,59.0,61,29.94,10.0,ESE,6.9,-,N/A,,Mostly Cloudy,120,2013-09-13 23:35:00
5:55 PM,71.6,60.8,69,29.93,10.0,East,6.9,-,N/A,,Mostly Cloudy,100,2013-09-13 23:55:00
6:15 PM,71.6,60.8,69,29.93,10.0,ESE,8.1,-,N/A,,Overcast,110,2013-09-14 00:15:00
6:35 PM,71.6,57.2,60,29.93,10.0,ESE,8.1,-,N/A,,Mostly Cloudy,110,2013-09-14 00:35:00
6:55 PM,69.8,59.0,68,29.93,10.0,East,6.9,-,N/A,,Mostly Cloudy,80,2013-09-14 00:55:00
7:15 PM,69.8,59.0,68,29.93,10.0,East,8.1,-,N/A,,Partly Cloudy,90,2013-09-14 01:15:00
7:35 PM,68.0,59.0,73,29.93,10.0,East,8.1,-,N/A,,Clear,100,2013-09-14 01:35:00
7:55 PM,68.0,57.2,68,29.95,10.0,SE,13.8,-,N/A,,Scattered Clouds,130,2013-09-14 01:55:00
8:15 PM,66.2,57.2,73,29.95,10.0,SE,12.7,-,N/A,,Partly Cloudy,130,2013-09-14 02:15:00
8:35 PM,66.2,57.2,73,29.96,10.0,ESE,12.7,-,N/A,,Clear,120,2013-09-14 02:35:00
8:55 PM,66.2,57.2,73,29.96,9.0,SE,15.0,-,N/A,,Clear,130,2013-09-14 02:55:00
9:15 PM,66.2,57.2,73,29.95,9.0,ESE,15.0,-,N/A,,Clear,120,2013-09-14 03:15:00
9:35 PM,64.4,57.2,77,29.96,10.0,ESE,10.4,-,N/A,,Clear,110,2013-09-14 03:35:00
10:15 PM,64.4,57.2,77,29.96,10.0,ESE,9.2,-,N/A,,Clear,110,2013-09-14 04:15:00
10:55 PM,62.6,57.2,82,29.96,10.0,East,8.1,-,N/A,,Clear,90,2013-09-14 04:55:00
11:15 PM,62.6,57.2,82,29.96,10.0,East,9.2,-,N/A,,Mostly Cloudy,100,2013-09-14 05:15:00
11:35 PM,62.6,57.2,82,29.97,10.0,East,8.1,-,N/A,,Overcast,100,2013-09-14 05:35:00
11:55 PM,62.6,57.2,82,29.97,10.0,ENE,9.2,-,N/A,,Overcast,60,2013-09-14 05:55:00